Flag for U.S.A. Weather past 2 weeks in Ontario, California, U.S.A.

Now
88 °F

Sunny.


Feels Like: 86 °F
Forecast: 59 / 89 °F
Wind: 9 mph from West

Location: Ontario International Airport

Current Time: Oct 1, 2014 at 4:57:09 PM

Latest Report: Oct 1, 2014 at 3:53 PM


Visibility: 10 mi

Pressure: 29.71 "Hg

Humidity: 29%

Dew point: 52 °F

Location of OntarioLocation

Historic Weather in Ontario — Graph

°F

Ontario temperature yesterday

Maximum temperature yesterday: 89 °F (at 1:53 PM)
Minimum temperature yesterday: 63 °F (at 3:53 AM)
Average temperature yesterday: 75 °F

Past Weeks' High & Low Weather Summary

 TemperatureHumidityPressure
High100 °F (Sep 17, 12:53 PM)87% (Sep 20, 5:53 AM)29.98 "Hg (Sep 20, 5:53 AM)
Low60 °F (Sep 28, 2:53 AM)14% (Sep 24, 12:53 PM)29.63 "Hg (Sep 17, 4:53 PM)
Average75 °F53%29.83 "Hg
* Reported Sep 16 3:53 PM — Oct 1 3:53 PM, Ontario, Weather by CustomWeather, © 2014

Note: Actual official high and low records may vary slightly from our data, if they occured in-between our weather recording intervals... More about our weather records

Advertising

Ontario weather history for previous 24 hours

 ConditionsComfort  
Time TempWeatherWind HumidityBarometerVisibility
3:53 PM
Oct 1
88 °FSunny.9 mph29%29.71 "Hg10 mi
2:53 PM88 °FSunny.13 mph29%29.72 "Hg10 mi
1:53 PM86 °FSunny.10 mph30%29.72 "Hg10 mi
12:53 PM84 °FSunny.9 mph32%29.75 "Hg10 mi
11:53 AM80 °FSunny.7 mph35%29.77 "Hg10 mi
10:53 AM77 °FSunny.7 mph42%29.78 "Hg10 mi
9:53 AM73 °FSunny.No wind51%29.80 "Hg10 mi
8:53 AM69 °FSunny.No wind61%29.80 "Hg10 mi
7:53 AM65 °FSunny.3 mph76%29.79 "Hg10 mi
6:53 AM62 °FClear.5 mph73%29.78 "Hg10 mi
5:53 AM63 °FClear.No wind78%29.76 "Hg10 mi
4:53 AM63 °FClear.No wind78%29.75 "Hg10 mi
3:53 AM64 °FClear.No wind63%29.73 "Hg10 mi
2:53 AM64 °FClear.5 mph61%29.73 "Hg10 mi
1:53 AM65 °FClear.3 mph68%29.74 "Hg10 mi
12:53 AM67 °FClear.3 mph66%29.74 "Hg10 mi
11:53 PM
Sep 30
68 °FClear.6 mph61%29.74 "Hg10 mi
10:53 PM70 °FClear.No wind55%29.74 "Hg10 mi
9:53 PM71 °FClear.5 mph53%29.74 "Hg10 mi
8:53 PM74 °FClear.5 mph50%29.74 "Hg10 mi
7:53 PM77 °FClear.9 mph45%29.73 "Hg10 mi
6:53 PM80 °FSunny.10 mph39%29.72 "Hg10 mi
5:53 PM85 °FSunny.15 mph26%29.72 "Hg10 mi
4:53 PM88 °FSunny.10 mph24%29.71 "Hg10 mi
Weather by CustomWeather, © 2014

See weather overviewHow to use our weather pages